Cape Girardeau, MO

3:56 AM CST on December 10, 2019 (GMT -0600)
Cape Girardeau Regional

Weather History for KCGI - October, 2019

Change the Weather History Date:

Wednesday, October 2, 2019

  Actual Average Record
Temperature  
Mean Temperature 80 °F 62 °F  
Max Temperature 94 °F 75 °F 94 °F (2019)
Min Temperature 65 °F 49 °F 34 °F (1985)
Degree Days  
Heating Degree Days 0 5  
Month to date heating degree days 0 10  
Since 1 July heating degree days 0 59  
Cooling Degree Days 15 2  
Month to date cooling degree days 30 4  
Year to date cooling degree days 1754 1426  
Growing Degree Days 30 (Base 50)    
Moisture  
Dew Point 65 °F    
Average Humidity 65    
Maximum Humidity 93    
Minimum Humidity 36    
Precipitation  
Precipitation 0.00 in 0.11 in 1.07 in (2014)
Month to date precipitation 0.00 0.22  
Year to date precipitation 47.67 34.55  
Sea Level Pressure  
Sea Level Pressure 29.95 in    
Wind  
Wind Speed 5 mph (SW)    
Max Wind Speed 15 mph    
Max Gust Speed 21 mph    
Visibility 10 miles    
Events      
T = Trace of Precipitation, MM = Missing Value Source: NWS Daily Summary

Daily Weather History Graph

Daily Weather History Graph

Search for Another Location

Airport or City:

Astronomy

Oct. 02, 2019 Rise Set
Actual Time 6:54 AM CDT 6:40 PM CDT
Civil Twilight 6:28 AM CDT 7:06 PM CDT
Nautical Twilight 5:58 AM CDT 7:36 PM CDT
Astronomical Twilight 5:27 AM CDT 8:06 PM CDT
Moon 11:14 AM CDT (10/2) 9:40 PM CDT (10/2)
Length of Visible Light 12h 37m
Length of Day
11h 45m
Waxing Crescent, 20% of the Moon is Illuminated
Oct 2
Waxing Crescent
Oct 5
First Quarter
Oct 13
Full
Oct 21
Last Quarter
Oct 27
New

Hourly Weather History & Observations

Time (CDT) Temp. Heat Index Dew Point Humidity Pressure Visibility Wind Dir Wind Speed Gust Speed Precip Events Conditions
12:53 AM 72.0 °F - 66.0 °F 81% 29.96 in 10.0 mi SSW 3.5 mph - N/A   Clear
1:53 AM 71.1 °F - 66.0 °F 84% 29.95 in 10.0 mi Calm Calm - N/A   Clear
2:53 AM 70.0 °F - 66.0 °F 87% 29.94 in 10.0 mi Calm Calm - N/A   Clear
3:53 AM 69.1 °F - 66.0 °F 90% 29.94 in 10.0 mi Calm Calm - N/A   Clear
4:53 AM 66.9 °F - 64.9 °F 93% 29.96 in 10.0 mi Calm Calm - N/A   Clear
5:53 AM 66.9 °F - 64.0 °F 90% 29.98 in 10.0 mi Calm Calm - N/A   Clear
6:53 AM 66.0 °F - 63.0 °F 90% 29.99 in 7.0 mi SW 3.5 mph - N/A   Clear
7:53 AM 71.1 °F - 66.9 °F 87% 30.01 in 8.0 mi Calm Calm - N/A   Clear
8:53 AM 78.1 °F - 68.0 °F 71% 30.01 in 10.0 mi SSW 3.5 mph - N/A   Clear
9:53 AM 82.9 °F 85.8 °F 68.0 °F 60% 30.01 in 10.0 mi WSW 4.6 mph - N/A   Clear
10:53 AM 87.1 °F 90.6 °F 68.0 °F 53% 30.01 in 10.0 mi Variable 5.8 mph - N/A   Clear
11:53 AM 90.0 °F 93.6 °F 68.0 °F 48% 30.00 in 10.0 mi WSW 10.4 mph 16.1 mph N/A   Clear
12:53 PM 91.9 °F 94.1 °F 64.9 °F 41% 29.97 in 10.0 mi WSW 11.5 mph - N/A   Clear
1:53 PM 93.9 °F 95.2 °F 63.0 °F 36% 29.94 in 10.0 mi WSW 9.2 mph - N/A   Clear
2:53 PM 93.0 °F 94.2 °F 63.0 °F 37% 29.92 in 10.0 mi SSW 6.9 mph 18.4 mph N/A   Clear
3:53 PM 93.9 °F 95.6 °F 64.0 °F 37% 29.91 in 10.0 mi SSW 8.1 mph - N/A   Clear
4:53 PM 93.0 °F 94.2 °F 63.0 °F 37% 29.91 in 10.0 mi SW 9.2 mph - N/A   Clear
5:53 PM 89.1 °F 90.0 °F 63.0 °F 42% 29.91 in 10.0 mi SW 6.9 mph - N/A   Clear
6:53 PM 82.0 °F 83.0 °F 62.1 °F 51% 29.91 in 10.0 mi SSW 5.8 mph - N/A   Clear
7:53 PM 80.1 °F 81.5 °F 63.0 °F 56% 29.92 in 10.0 mi South 5.8 mph - N/A   Clear
8:53 PM 80.1 °F 81.7 °F 64.0 °F 58% 29.92 in 10.0 mi SSW 5.8 mph - N/A   Clear
9:53 PM 73.9 °F - 64.0 °F 71% 29.93 in 10.0 mi Calm Calm - N/A   Clear
10:53 PM 73.0 °F - 64.0 °F 73% 29.94 in 10.0 mi WSW 3.5 mph - N/A   Clear
11:53 PM 71.1 °F - 64.0 °F 78% 29.95 in 10.0 mi West 4.6 mph - N/A   Clear